Погода в Неме

Россия / Кировская область     57°30′23″N   50°30′07″E
темп.,
°C
ветер,
м/с
пор.,
м/с
влажн.,
%
обл.,
%
осадки,
мм/ч
давл.,
гПа
погр.,
м
9 марта, вт
вт900:00−12ссз1296100 0.0 100121
03:00−15ссз239698 0.1 100338
06:00−18ссз23970 0.0 100526
09:00−14с239511 0.0 1007186
12:00−11с228991 0.0 1009387
15:00−10с349096 0.1 1009492
18:00−13с4895100 0.1 1010329
21:00−15ссв5994100 0.2 1012365
10 марта, ср
ср1000:00−17ссв51094100 0.1 1012406
03:00−20ссв51095100 0.3 1014400
06:00−23ссв51094100 0.1 1015355
09:00−24ссв5109089 0.1 1017359
12:00−20с69880 0.0 1017493
15:00−18с510843 0.0 1017693
18:00−21ссз499230 0.0 1019211
21:00−22ссз499515 0.0 1020205
11 марта, чт
чт1100:00−24сз37980 0.0 1020113
03:00−23зсз379524 0.0 1020162
06:00−21зсз3896100 0.1 1020282
09:00−17сз3795100 0.2 1020353
12:00−11сз5892100 0.3 1020546
15:00−7сз51084100 0.3 1020832
18:00−10зсз4128491 0.0 1021411
21:00−12сз5148561 0.0 1023456
12 марта, пт
пт1200:00−15зсз412871 0.0 1024308
03:00−16зсз412889 0.0 1024260
06:00−15з4118786 0.0 1025294
09:00−13з5108892 0.0 1025396
12:00−9з61282100 0.0 1025664
15:00−9з61383100 0.0 1025665
18:00−10з61485100 0.0 1025549
21:00−10з51386100 0.0 1027496
13 марта, сб
сб1300:00−11з51388100 0.0 1027437
03:00−12з41190100 0.0 1028399
06:00−15зюз3992100 0.0 1029259
09:00−14зюз478795 0.0 1030292
12:00−10юз4885100 0.0 1030381
15:00−8юз4883100 0.0 1029515
18:00−10ююз389262 0.0 1028206
21:00−13ююз4119557 0.0 1028247